Tracking 22836 objects as of 18-Apr-2021
HD Live streaming from Space Station
objects crossing your sky now

CLUSTER II-FM7

Track CLUSTER II-FM7 now!
CLUSTER II-FM7 is classified as:


NORAD ID: 26411
Int'l Code: 2000-041B
Perigee: 20,736.6 km
Apogee: 111,948.5 km
Inclination: 133.2 °
Period: 3,252.2 minutes
Semi major axis: 72713 km
RCS: 1.5887 m2 (large)
Launch date: July 16, 2000
Source: European Space Agency (ESA)
Launch site: TYURATAM MISSILE AND SPACE COMPLEX (TTMTR)
aabbcc
Your satellite tracking list
Your tracking list is empty




NASA's NSSDC Master Catalog

Two Line Element Set (TLE):
1 26411U 00041B   21106.46440251  .00000116  00000-0  00000+0 0  9992
2 26411 133.2223 345.7389 6272001 195.6434   0.8155  0.44277181 22996
Source of the keplerian elements: AFSPC